Content
SEND FEEDBACK

Daily
Averages
Monthly
Summary
United States of America

MCCOMB, MISSISSIPPI


Home > North America > United States > Mississippi
Elevation: 140 meters     Latitude: 31 15N     Longitude: 090 28W

WEATHER
 
SELECT A DAY
Number of Records: 206,742;   Date Range: 1/1/95 - 9/20/14
 
SHARE

PRINT THIS DATA

[ ← Previous Day ]
WEATHER ALMANAC - 13 FEBRUARY, 2013
[ Next Day → ]
[ °F ]   °C
Weather ElementAverageHighLow
Temperature9.1 °C11.1 °C (12:53 am)2.2 °C (11:53 pm)
Dewpoint5.6 °C9.4 °C (12:53 am)1.1 °C (11:53 pm)
Humidity79.9 %93 % (2:53 am)61 % (3:53 pm)
Barometer1014.9 hPa1018.6 hPa (9:53 pm)1011.2 hPa (1:14 am)
Wind Speed13.5 km/h24.1 km/h (1:12 pm)
Wind Gust35.2 km/h (10:53 am)
Weather ElementAverage
Visibility15.9 km
Wind DirectionWNW (276 °)

Weather ElementTotal
Precipitation0.25 mm
Heating Degree Days11.7 (Base 18.3)
Averaged from 35 records on 13 February, 2013
WEATHER CONDITIONS BREAKOUT
WIND DIRECTION BREAKOUT
WEATHER BY HOUR - 13 FEBRUARY, 2013
[ °F ]   °C
Local TimeTemperatureDewpointHumidityBarometerVisibilityWind DirectionWind SpeedGust SpeedPrecipitationEventsConditions
12:53 AM11.1 °C9.4 °C89 %1011.5 hPa16.1 kmWest (280°)11.1 km/hOvercast
1:14 AM11 °C9 °C88 %1011.2 hPa16.1 kmWNW (290°)11.1 km/hScattered Clouds
1:34 AM11 °C9 °C88 %1011.5 hPa16.1 kmWNW (290°)11.1 km/hMostly Cloudy
1:53 AM10.6 °C8.9 °C89 %1011.9 hPa16.1 kmWNW (290°)14.8 km/hOvercast
2:53 AM10 °C8.9 °C93 %1012.9 hPa16.1 kmWest (270°)13 km/hScattered Clouds
3:45 AM10 °C8 °C87 %1012.5 hPa16.1 kmWest (270°)7.4 km/hMostly Cloudy
3:53 AM10 °C8.3 °C89 %1012.2 hPa16.1 kmWest (280°)7.4 km/hMostly Cloudy
4:02 AM10 °C8 °C87 %1012.2 hPa16.1 kmWNW (290°)11.1 km/hMostly Cloudy
4:53 AM10 °C8.3 °C89 %1012.5 hPa16.1 kmWNW (290°)16.7 km/hScattered Clouds
5:40 AM10 °C8 °C87 %1013.5 hPa16.1 kmWNW (290°)16.7 km/hMostly Cloudy
5:53 AM10 °C7.8 °C86 %1013.2 hPa16.1 kmWest (280°)16.7 km/h27.8 km/hOvercast
6:14 AM10 °C8 °C87 %1013.5 hPa16.1 kmWNW (290°)16.7 km/hOvercast
6:28 AM9 °C8 °C93 %1013.5 hPa16.1 kmWNW (300°)13 km/hOvercast
6:53 AM9.4 °C7.2 °C86 %1012.9 hPa16.1 kmWNW (300°)11.1 km/hOvercast
7:53 AM9.4 °C7.8 °C90 %1014.9 hPa12.9 kmVariable7.4 km/h0.25 mmRainLight Rain
8:53 AM8.3 °C6.1 °C86 %1015.9 hPa16.1 kmNW (310°)22.2 km/h0 mmOvercast
9:04 AM8 °C6 °C87 %1015.9 hPa16.1 kmNW (310°)22.2 km/h29.6 km/hOvercast
9:53 AM8.3 °C5.6 °C83 %1016.3 hPa16.1 kmNW (320°)16.7 km/hOvercast
10:53 AM8.9 °C4.4 °C74 %1015.6 hPa16.1 kmNW (320°)16.7 km/h35.2 km/hOvercast
11:53 AM9.4 °C3.9 °C69 %1015.9 hPa16.1 kmNNW (330°)18.5 km/h33.3 km/hOvercast
12:53 PM10 °C3.3 °C63 %1015.2 hPa16.1 kmNorth (350°)20.4 km/hOvercast
1:12 PM11 °C4 °C62 %1015.2 hPa16.1 kmNW (320°)24.1 km/h31.5 km/hOvercast
1:39 PM11 °C4 °C62 %1015.9 hPa16.1 kmNNW (340°)24.1 km/h33.3 km/hOvercast
1:53 PM10.6 °C3.9 °C63 %1015.9 hPa16.1 kmNNW (340°)20.4 km/hOvercast
2:03 PM11 °C4 °C62 %1015.6 hPa16.1 kmNNW (330°)20.4 km/hOvercast
2:53 PM10.6 °C3.9 °C63 %1015.6 hPa16.1 kmNNW (330°)20.4 km/hOvercast
3:53 PM10.6 °C3.3 °C61 %1015.6 hPa16.1 kmNNW (340°)18.5 km/hOvercast
4:53 PM10 °C3.3 °C63 %1016.3 hPa16.1 kmNNW (330°)9.3 km/hOvercast
5:53 PM9.4 °C2.8 °C64 %1016.6 hPa16.1 kmNorth (350°)11.1 km/hOvercast
6:53 PM8.9 °C2.8 °C66 %1017.3 hPa16.1 kmNNW (340°)7.4 km/hOvercast
7:53 PM6.1 °C2.8 °C80 %1017.6 hPa16.1 kmNNW (340°)9.3 km/hClear
8:53 PM6.1 °C2.8 °C80 %1017.9 hPa16.1 kmNorth (350°)5.6 km/hClear
9:53 PM3.9 °C2.8 °C93 %1018.6 hPa16.1 kmCalmClear
10:53 PM2.8 °C1.7 °C93 %1018.6 hPa16.1 kmCalmClear
11:53 PM2.2 °C1.1 °C93 %1018.3 hPa16.1 kmCalmClear
Hourly data recorded from KMCB, located 0 kilometers away from McComb, Mississippi







STORIES FROM OUR PARTNERS